Location: West Sayville
(40.7279°N, 73.0976°W)
Time: 04:33:40
(UTC+00:00)

Cosmos 2082 - Pass Details

Date: 29 October 2020
Orbit: 832 x 857 km, 71.0° (Epoch: 29 November)

Event Time Altitude Azimuth Distance (km) Brightness Sun altitude
Rises 23:18:00 0° 338° (NNW) 3,435 7.1 -16.9°
Reaches altitude 10° 23:20:29 10° 341° (NNW) 2,497 6.3 -17.3°
Maximum altitude 23:26:13 68° 65° (ENE) 919 3.6 -18.4°
Enters shadow 23:31:49 10° 148° (SSE) 2,450 5.8 -19.5°
